E1763 Weather Reports


time (UTC)temp
F
wind
direction
speed
knots
gust
knots
rain 1hr
in
rain 24hr
in
rain mn
in
humidity
%
barometer
mb
20260506214530 69 184 0.0 0.0 0.00 0.01 0.01 73 1014.8
20260506213029 69 238 0.0 7.0 0.00 0.01 0.01 74 1015.0
20260506211527 68 247 0.0 0.0 0.00 0.01 0.01 73 1015.0
20260506210045 70 299 0.0 0.0 0.00 0.01 0.01 71 1015.0
20260506204524 71 236 0.0 0.0 0.00 0.01 0.01 73 1015.0
20260506203021 70 274 0.0 0.0 0.00 0.01 0.01 73 1015.1
20260506201523 70 206 0.0 0.0 0.00 0.01 0.01 73 1015.2
20260506200018 69 270 0.0 0.0 0.00 0.01 0.01 72 1015.2
20260506194517 68 286 0.0 0.0 0.00 0.01 0.01 76 1015.3
20260506193022 69 188 0.0 0.9 0.00 0.01 0.01 75 1015.4
20260506191512 67 196 0.0 0.0 0.00 0.01 0.01 78 1015.5
20260506190011 66 258 0.0 4.3 0.00 0.01 0.01 81 1015.6
20260506184505 66 263 0.0 0.9 0.00 0.01 0.01 81 1015.7
20260506183002 65 143 0.0 0.0 0.00 0.01 0.01 82 1015.6
20260506181604 64 166 0.0 0.0 0.00 0.01 0.01 84 1015.7
20260506180056 62 223 0.0 0.0 0.00 0.01 0.01 87 1015.7
20260506174552 61 197 0.0 0.0 0.00 0.01 0.01 89 1015.6
20260506173056 59 180 0.0 0.0 0.00 0.01 0.01 92 1015.7
20260506171545 58 254 0.0 0.0 0.00 0.01 0.01 93 1015.7
20260506170047 57 186 0.0 0.0 0.00 0.01 0.01 94 1015.7
20260506164554 56 178 0.0 0.0 0.00 0.01 0.01 95 1015.9
20260506163041 55 159 0.0 0.0 0.00 0.01 0.01 95 1015.9
20260506161535 55 274 0.0 0.0 0.00 0.01 0.01 96 1015.7
20260506160036 54 251 0.0 0.0 0.01 0.01 0.01 96 1015.7
20260506154532 53 262 0.0 0.0 0.01 0.01 0.01 96 1015.7
20260506153031 53 202 0.0 0.0 0.01 0.01 0.01 96 1015.6
20260506151530 53 252 0.0 0.0 0.01 0.01 0.01 96 1015.6
20260506150028 53 5 0.0 0.0 0.00 0.00 0.00 96 1015.7
20260506144529 52 28 0.0 0.0 0.00 0.00 0.00 96 1015.7
20260506143025 52 24 0.0 0.0 0.00 0.00 0.00 96 1015.7
20260506141529 52 39 0.0 0.0 0.00 0.00 0.00 96 1015.5
20260506140022 52 39 0.0 0.0 0.00 0.00 0.00 96 1015.4
20260506134520 52 300 0.0 0.0 0.00 0.00 0.00 96 1015.3
20260506133019 52 300 0.0 0.0 0.00 0.00 0.00 95 1015.1
20260506131521 52 300 0.0 0.0 0.00 0.00 0.00 95 1015.0
20260506130017 52 300 0.0 0.0 0.00 0.00 0.00 95 1015.0
20260506124516 52 300 0.0 0.0 0.00 0.00 0.00 95 1015.0
20260506123016 51 300 0.0 0.0 0.00 0.00 0.00 95 1014.9
20260506121515 51 300 0.0 0.0 0.00 0.00 0.00 95 1014.9
20260506120028 51 300 0.0 0.0 0.00 0.00 0.00 95 1014.8
20260506114511 51 300 0.0 0.0 0.00 0.00 0.00 95 1014.7
20260506113011 51 291 0.0 0.0 0.00 0.00 0.00 95 1014.7
20260506111509 51 291 0.0 0.0 0.00 0.00 0.00 95 1014.6
20260506110009 52 291 0.0 0.0 0.00 0.00 0.00 95 1014.4
20260506104505 52 291 0.0 0.0 0.00 0.00 0.00 95 1014.3
20260506103015 51 291 0.0 0.0 0.00 0.00 0.00 95 1014.2
20260506101504 52 5 0.0 0.0 0.00 0.00 0.00 95 1013.9
20260506100002 52 5 0.0 0.0 0.00 0.00 0.00 95 1013.9
20260506094604 52 5 0.0 0.0 0.00 0.00 0.00 95 1013.9
20260506093101 52 5 0.0 0.0 0.00 0.00 0.00 94 1013.9
20260506091604 52 5 0.0 0.0 0.00 0.00 0.00 94 1013.8
20260506090104 52 5 0.0 0.0 0.00 0.00 0.00 94 1013.7
20260506084629 52 5 0.0 0.0 0.00 0.00 0.00 94 1013.8
20260506083057 52 5 0.0 0.0 0.00 0.00 0.00 94 1013.8
20260506081600 52 5 0.0 0.0 0.00 0.00 0.00 94 1013.7
20260506073052 52 336 0.0 0.0 0.00 0.00 0.00 94 1013.7
20260506071551 52 336 0.0 0.0 0.00 0.00 0.00 94 1013.5
20260506061544 52 9 0.0 0.0 0.00 0.00 0.00 93 1012.9
20260506044539 53 12 0.0 0.0 0.00 0.00 0.00 93 1012.5
20260506043043 53 219 0.0 0.0 0.00 0.00 0.00 92 1012.3
20260506041534 53 5 0.0 0.0 0.00 0.00 0.00 92 1012.2
20260506040036 53 276 0.0 0.0 0.00 0.00 0.00 91 1012.0
20260506034532 53 248 0.0 0.0 0.00 0.00 0.00 91 1011.7
20260506033027 53 333 0.0 0.0 0.00 0.00 0.00 90 1011.6
20260506031532 54 329 0.0 0.0 0.00 0.00 0.00 90 1011.4
20260506030023 54 336 0.0 0.0 0.00 0.00 0.00 90 1011.2
20260506024522 54 281 0.0 0.0 0.00 0.00 0.00 90 1011.0
20260506023035 54 315 0.0 0.0 0.00 0.00 0.00 89 1010.9
20260506021532 55 280 0.0 0.0 0.00 0.00 0.00 89 1010.8
20260506020024 55 283 0.0 0.0 0.00 0.00 0.00 89 1010.8
20260506014519 55 263 0.0 0.0 0.00 0.00 0.00 88 1010.7
20260506013021 55 24 0.0 0.0 0.00 0.00 0.00 89 1010.7
20260506011516 55 349 0.0 0.0 0.00 0.00 0.00 88 1010.7
20260506010016 56 302 0.0 6.1 0.00 0.00 0.00 87 1010.5
20260506004515 56 250 0.0 0.0 0.00 0.00 0.00 87 1010.6
20260506003016 56 278 0.0 0.9 0.00 0.00 0.00 88 1010.6
20260506001514 56 222 0.0 1.7 0.00 0.00 0.00 88 1010.5
20260506000013 56 34 0.0 5.2 0.00 0.00 0.00 87 1010.5
20260505234514 57 49 0.0 4.3 0.00 0.00 0.00 87 1010.4
20260505233012 57 225 0.0 0.0 0.00 0.00 0.00 86 1010.5
20260505231525 58 190 0.0 0.0 0.00 0.00 0.00 85 1010.6
20260505230021 59 28 0.0 0.0 0.00 0.00 0.00 83 1010.6
20260505224513 59 28 0.0 0.0 0.00 0.00 0.00 84 1010.5
20260505223009 59 169 0.0 0.0 0.00 0.00 0.00 82 1010.6
20260505221508 61 257 0.0 0.0 0.00 0.00 0.00 82 1010.7
20260505220006 61 256 0.0 0.0 0.00 0.00 0.00 81 1010.6